GW6590 Weather Reports


Display with metric or nautical units.
time (UTC)temp
F
wind
direction
speed
MPH
gust
MPH
rain 1hr
in
rain 24hr
in
rain mn
in
humidity
%
barometer
mb
20260506221847 59 164 1.0 3.0 0.07 0.28 0.28 95 1022.9
20260506221344 59 137 1.0 2.0 0.12 0.28 0.28 95 1022.9
20260506220842 59 230 0.0 0.0 0.19 0.28 0.28 95 1022.8
20260506220337 59 270 2.0 7.0 0.24 0.27 0.27 95 1023.0
20260506215834 59 138 1.0 1.0 0.12 0.25 0.25 95 1023.0
20260506215330 59 317 0.0 0.0 0.00 0.23 0.23 95 1022.8
20260506214826 59 239 2.0 2.0 0.00 0.23 0.23 95 1022.8
20260506214323 59 218 2.0 2.0 0.00 0.23 0.23 95 1022.8
20260506213821 59 84 0.0 0.0 0.00 0.23 0.23 95 1022.7
20260506213318 59 243 1.0 1.0 0.00 0.23 0.23 95 1022.9
20260506212816 59 244 1.0 2.0 0.00 0.23 0.23 95 1022.9
20260506212311 59 286 2.0 6.0 0.00 0.23 0.23 95 1023.2
20260506211806 59 90 0.0 0.0 0.00 0.23 0.23 95 1023.3
20260506211303 59 128 1.0 1.0 0.05 0.23 0.23 95 1023.2
20260506210800 59 84 5.0 7.0 0.05 0.23 0.23 95 1023.3
20260506210257 59 74 0.0 0.0 0.00 0.22 0.22 94 1023.2
20260506205754 59 272 1.0 1.0 0.07 0.22 0.22 94 1023.5
20260506205249 59 235 1.0 2.0 0.07 0.22 0.22 94 1023.2
20260506204746 59 124 0.0 1.0 0.05 0.21 0.21 94 1023.4
20260506204244 59 252 1.0 2.0 0.12 0.21 0.21 94 1023.7
20260506203742 59 119 1.0 2.0 0.14 0.20 0.20 93 1023.5
20260506203239 59 183 1.0 1.0 0.07 0.19 0.19 94 1023.5
20260506202736 59 258 1.0 1.0 0.00 0.18 0.18 93 1023.7
20260506202232 59 212 2.0 2.0 0.00 0.18 0.18 93 1023.6
20260506201729 59 261 1.0 1.0 0.05 0.18 0.18 93 1023.5
20260506201226 59 217 1.0 2.0 0.05 0.18 0.18 93 1023.4
20260506200723 59 248 2.0 3.0 0.00 0.17 0.17 93 1023.5
20260506200220 59 180 1.0 2.0 0.00 0.17 0.17 93 1023.5
20260506195716 59 101 2.0 3.0 0.00 0.17 0.17 93 1023.6
20260506195213 59 155 0.0 2.0 0.00 0.17 0.17 93 1023.6
20260506194710 59 200 5.0 6.0 0.00 0.17 0.17 93 1023.7
20260506194206 59 93 3.0 6.0 0.07 0.17 0.17 93 1023.6
20260506193704 59 35 1.0 2.0 0.07 0.17 0.17 92 1024.0
20260506193201 59 74 0.0 1.0 0.00 0.16 0.16 93 1024.0
20260506192657 59 258 2.0 4.0 0.00 0.16 0.16 92 1023.8
20260506192154 59 40 2.0 2.0 0.00 0.16 0.16 92 1024.0
20260506191651 59 96 3.0 4.0 0.00 0.16 0.16 92 1024.2
20260506191147 59 345 1.0 3.0 0.00 0.16 0.16 92 1024.0
20260506190644 59 96 2.0 2.0 0.05 0.16 0.16 92 1024.0
20260506190141 59 189 0.0 0.0 0.12 0.16 0.16 93 1024.0
20260506185638 59 81 2.0 4.0 0.07 0.15 0.15 92 1024.1
20260506185134 59 242 0.0 1.0 0.12 0.15 0.15 92 1024.6
20260506184632 59 41 2.0 3.0 0.05 0.14 0.14 92 1024.6
20260506184129 59 160 3.0 4.0 0.07 0.13 0.13 92 1024.4
20260506183626 59 327 1.0 2.0 0.07 0.13 0.13 92 1024.3
20260506183121 59 173 0.0 0.0 0.00 0.12 0.12 92 1024.2
20260506182619 59 131 5.0 8.0 0.00 0.12 0.12 91 1024.0
20260506182116 59 105 2.0 3.0 0.05 0.12 0.12 91 1024.1
20260506181614 59 156 2.0 3.0 0.05 0.12 0.12 91 1024.0
20260506181111 59 145 5.0 7.0 0.12 0.11 0.11 91 1024.1
20260506180608 60 164 1.0 1.0 0.12 0.11 0.11 91 1024.1
20260506180104 0 0.0 0.0 0.00 0.00 0.00 1024.4
20260506175600 60 99 1.0 1.0 0.07 0.09 0.09 90 1024.4
20260506175056 60 99 1.0 1.0 0.19 0.09 0.09 90 1024.8
20260506174556 60 117 0.0 1.0 0.12 0.08 0.08 89 1024.9
20260506174051 0 0.0 0.0 0.00 0.00 0.00 1025.0
20260506173549 61 97 0.0 1.0 0.19 0.06 0.06 87 1025.3
20260506173046 61 97 0.0 1.0 0.19 0.06 0.06 87 1025.2
20260506172543 61 282 3.0 4.0 0.24 0.05 0.05 86 1025.3
20260506172039 61 245 1.0 1.0 0.17 0.03 0.03 85 1025.3
20260506171537 63 147 1.0 2.0 0.05 0.01 0.01 80 1025.7
20260506171034 63 147 1.0 2.0 0.05 0.01 0.01 80 1025.6
20260506170532 64 128 2.0 3.0 0.00 0.00 0.00 78 1025.8
20260506170024 64 231 2.0 3.0 0.00 0.00 0.00 76 1025.8
20260506165522 65 94 1.0 2.0 0.00 0.00 0.00 73 1025.5
20260506165018 66 28 3.0 4.0 0.00 0.00 0.00 71 1025.7
20260506164514 66 55 1.0 2.0 0.00 0.00 0.00 69 1025.5
20260506164012 67 67 2.0 3.0 0.00 0.00 0.00 68 1025.2
20260506163508 67 322 3.0 4.0 0.00 0.00 0.00 69 1025.3
20260506163004 67 119 2.0 3.0 0.00 0.00 0.00 68 1025.3
20260506162500 66 274 6.0 10.0 0.00 0.00 0.00 68 1025.3
20260506161957 66 261 11.0 16.0 0.00 0.00 0.00 68 1025.1
20260506161455 66 158 3.0 6.0 0.00 0.00 0.00 68 1025.5
20260506160952 66 201 4.0 6.0 0.00 0.00 0.00 68 1025.6
20260506160449 67 284 4.0 4.0 0.00 0.00 0.00 67 1025.6
20260506155946 67 13 2.0 2.0 0.00 0.00 0.00 67 1025.8
20260506155444 67 261 2.0 2.0 0.00 0.00 0.00 67 1025.8
20260506153610 67 347 3.0 3.0 0.00 0.00 0.00 65 1025.6
20260506153108 67 107 2.0 3.0 0.00 0.00 0.00 66 1025.7
20260506152605 67 304 5.0 8.0 0.00 0.00 0.00 66 1025.8
20260506152103 67 70 1.0 1.0 0.00 0.00 0.00 66 1025.7
20260506151601 67 80 3.0 4.0 0.00 0.00 0.00 66 1025.9
20260506151057 68 156 2.0 3.0 0.00 0.00 0.00 66 1025.8
20260506150554 68 60 3.0 4.0 0.00 0.00 0.00 66 1025.9
20260506150051 67 216 1.0 2.0 0.00 0.00 0.00 67 1025.9
20260506145548 67 69 4.0 4.0 0.00 0.00 0.00 66 1026.1
20260506145045 67 240 1.0 1.0 0.00 0.00 0.00 67 1026.1
20260506144542 67 310 1.0 2.0 0.00 0.00 0.00 68 1026.1
20260506144039 67 298 4.0 6.0 0.00 0.00 0.00 68 1026.2
20260506143537 67 269 2.0 3.0 0.00 0.00 0.00 67 1026.3
20260506143035 67 78 1.0 2.0 0.00 0.00 0.00 68 1026.2
20260506142532 67 241 3.0 6.0 0.00 0.00 0.00 68 1026.3
20260506142031 66 218 4.0 6.0 0.00 0.00 0.00 68 1026.3
20260506141528 66 255 1.0 2.0 0.00 0.00 0.00 68 1026.2
20260506141026 66 45 1.0 2.0 0.00 0.00 0.00 70 1026.1
20260506140523 66 121 2.0 2.0 0.00 0.00 0.00 70 1026.3
20260506140020 66 187 0.0 1.0 0.00 0.00 0.00 70 1026.4
20260506135517 66 118 2.0 2.0 0.00 0.00 0.00 70 1026.1
20260506135013 65 338 1.0 2.0 0.00 0.00 0.00 71 1026.0
20260506134510 65 59 4.0 6.0 0.00 0.00 0.00 71 1025.9
20260506134006 66 238 6.0 9.0 0.00 0.00 0.00 70 1025.7
20260506133503 66 237 2.0 3.0 0.00 0.00 0.00 71 1026.0
20260506133000 65 180 3.0 4.0 0.00 0.00 0.00 71 1025.9
20260506132457 65 266 3.0 4.0 0.00 0.00 0.00 72 1026.2
20260506131954 65 231 2.0 3.0 0.00 0.00 0.00 72 1026.1
20260506131451 64 253 1.0 1.0 0.00 0.00 0.00 73 1026.1
20260506130948 64 291 4.0 7.0 0.00 0.00 0.00 74 1026.1
20260506130444 64 264 2.0 3.0 0.00 0.00 0.00 75 1026.1
20260506125942 64 80 3.0 6.0 0.00 0.00 0.00 75 1026.4
20260506125440 64 199 2.0 4.0 0.00 0.00 0.00 76 1026.4
20260506124938 64 199 1.0 1.0 0.00 0.00 0.00 75 1026.6
20260506124435 64 274 0.0 1.0 0.00 0.00 0.00 76 1026.7
20260506123933 63 81 0.0 2.0 0.00 0.00 0.00 75 1026.6
20260506123431 64 343 3.0 3.0 0.00 0.00 0.00 75 1026.7
20260506122928 64 304 4.0 6.0 0.00 0.00 0.00 75 1026.8
20260506122425 64 298 0.0 1.0 0.00 0.00 0.00 75 1026.6
20260506121923 63 176 3.0 6.0 0.00 0.00 0.00 76 1026.6
20260506121420 63 241 1.0 1.0 0.00 0.00 0.00 76 1026.5
20260506120917 63 117 3.0 3.0 0.00 0.00 0.00 76 1026.5
20260506120414 63 241 5.0 6.0 0.00 0.00 0.00 76 1026.7
20260506115911 63 306 2.0 3.0 0.00 0.00 0.00 77 1026.4
20260506115410 62 252 2.0 2.0 0.00 0.00 0.00 77 1026.6
20260506114908 62 89 4.0 6.0 0.00 0.00 0.00 78 1026.6
20260506114405 62 273 2.0 2.0 0.00 0.00 0.00 78 1026.7
20260506113904 62 108 3.0 6.0 0.00 0.00 0.00 78 1026.4
20260506113401 62 317 1.0 2.0 0.00 0.00 0.00 78 1026.3
20260506112857 62 273 3.0 4.0 0.00 0.00 0.00 78 1026.4
20260506112355 62 21 3.0 4.0 0.00 0.00 0.00 78 1026.5
20260506111852 62 282 4.0 6.0 0.00 0.00 0.00 78 1026.8
20260506111350 62 163 0.0 1.0 0.00 0.00 0.00 78 1026.8
20260506110847 61 115 5.0 7.0 0.00 0.00 0.00 79 1026.9
20260506110344 60 283 1.0 2.0 0.00 0.00 0.00 80 1026.8
20260506105841 60 226 2.0 4.0 0.00 0.00 0.00 80 1026.8
20260506105337 61 291 6.0 7.0 0.00 0.00 0.00 80 1026.7
20260506104835 61 145 2.0 2.0 0.00 0.00 0.00 80 1026.8
20260506104332 61 26 0.0 1.0 0.00 0.00 0.00 80 1026.8
20260506103830 61 310 2.0 4.0 0.00 0.00 0.00 80 1026.8
20260506103327 60 224 2.0 3.0 0.00 0.00 0.00 80 1026.4
20260506102825 60 118 0.0 0.0 0.00 0.00 0.00 80 1026.6
20260506102322 60 213 5.0 7.0 0.00 0.00 0.00 81 1026.6
20260506101820 60 89 1.0 1.0 0.00 0.00 0.00 81 1026.6
20260506101315 60 326 3.0 6.0 0.00 0.00 0.00 81 1026.7
20260506100814 60 234 2.0 2.0 0.00 0.00 0.00 81 1026.5
20260506100312 60 346 2.0 3.0 0.00 0.00 0.00 81 1026.4
20260506095810 60 106 4.0 6.0 0.00 0.00 0.00 81 1026.6
20260506095306 60 142 1.0 1.0 0.00 0.00 0.00 81 1026.6
20260506094803 60 136 1.0 1.0 0.00 0.00 0.00 80 1026.7
20260506094302 60 103 3.0 7.0 0.00 0.00 0.00 81 1026.4
20260506093759 60 92 1.0 2.0 0.00 0.00 0.00 81 1026.5
20260506093256 60 57 2.0 2.0 0.00 0.00 0.00 81 1026.4
20260506092754 60 131 2.0 4.0 0.00 0.00 0.00 81 1026.5
20260506092252 60 125 2.0 3.0 0.00 0.00 0.00 80 1026.5
20260506091749 60 145 4.0 7.0 0.00 0.00 0.00 81 1026.5
20260506091246 60 289 2.0 2.0 0.00 0.00 0.00 80 1026.4
20260506090744 60 88 1.0 2.0 0.00 0.00 0.00 80 1026.3
20260506090241 60 301 1.0 1.0 0.00 0.00 0.00 80 1026.4
20260506085737 60 114 4.0 8.0 0.00 0.00 0.00 79 1026.3
20260506085234 60 123 4.0 6.0 0.00 0.00 0.00 79 1026.4
20260506084730 60 353 2.0 2.0 0.00 0.00 0.00 79 1026.5
20260506084227 60 282 5.0 9.0 0.00 0.00 0.00 79 1026.7
20260506083724 60 126 1.0 2.0 0.00 0.00 0.00 79 1026.6
20260506083222 60 237 0.0 1.0 0.00 0.00 0.00 78 1026.5
20260506082719 60 141 0.0 1.0 0.00 0.00 0.00 78 1026.6
20260506082214 60 173 0.0 1.0 0.00 0.00 0.00 77 1026.5
20260506081712 61 110 1.0 1.0 0.00 0.00 0.00 77 1026.5
20260506081210 61 135 0.0 1.0 0.00 0.00 0.00 77 1026.6
20260506080707 61 30 2.0 4.0 0.00 0.00 0.00 77 1026.5
20260506080204 61 316 2.0 3.0 0.00 0.00 0.00 76 1026.5
20260506073148 61 276 2.0 4.0 0.00 0.00 0.00 75 1026.6
20260506072644 61 268 0.0 1.0 0.00 0.00 0.00 75 1026.5
20260506072142 61 102 2.0 2.0 0.00 0.00 0.00 75 1026.7
20260506071640 61 127 0.0 1.0 0.00 0.00 0.00 75 1026.7
20260506071137 61 320 3.0 3.0 0.00 0.00 0.00 76 1026.7
20260506070634 61 56 0.0 1.0 0.00 0.00 0.00 75 1026.6
20260506070131 61 249 2.0 2.0 0.00 0.00 0.00 75 1026.7
20260506062108 61 78 0.0 1.0 0.00 0.00 0.00 74 1026.5
20260506061604 61 70 2.0 2.0 0.00 0.00 0.00 74 1026.5
20260506061102 61 234 2.0 2.0 0.00 0.00 0.00 74 1026.5
20260506060600 62 333 2.0 2.0 0.00 0.00 0.00 74 1026.6
20260506051029 63 50 3.0 4.0 0.00 0.00 0.00 72 1026.7
20260506050526 63 11 2.0 2.0 0.00 0.00 0.00 71 1027.2
20260506045017 63 123 4.0 6.0 0.00 0.00 0.00 70 1027.1
20260506044515 63 99 4.0 6.0 0.00 0.00 0.00 70 1026.9
20260506044012 63 232 4.0 6.0 0.00 0.00 0.00 70 1027.1
20260506043509 63 270 3.0 7.0 0.00 0.00 0.00 69 1027.0
20260506043007 63 264 2.0 3.0 0.00 0.00 0.00 69 1027.1
20260506042506 63 65 2.0 3.0 0.00 0.00 0.00 68 1027.1
20260506042003 64 61 1.0 2.0 0.00 0.00 0.00 68 1026.9
20260506041502 64 42 2.0 2.0 0.00 0.00 0.00 67 1027.0
20260506040958 64 260 4.0 7.0 0.00 0.00 0.00 67 1027.1
20260506040456 64 259 2.0 2.0 0.00 0.00 0.00 67 1027.1
20260506035952 64 281 3.0 3.0 0.00 0.00 0.00 66 1027.1
20260506035449 64 88 3.0 3.0 0.00 0.00 0.00 65 1027.1
20260506034945 64 220 0.0 2.0 0.00 0.00 0.00 65 1027.1
20260506034443 64 24 3.0 6.0 0.00 0.00 0.00 65 1027.1
20260506033940 64 135 5.0 6.0 0.00 0.00 0.00 64 1027.0
20260506033438 64 33 4.0 6.0 0.00 0.00 0.00 63 1027.0
20260506032934 64 103 3.0 4.0 0.00 0.00 0.00 63 1027.2
20260506032431 64 114 3.0 6.0 0.00 0.00 0.00 63 1027.3
20260506031927 64 248 1.0 1.0 0.00 0.00 0.00 63 1027.2
20260506031425 64 300 5.0 7.0 0.00 0.00 0.00 63 1026.9
20260506030923 64 123 3.0 7.0 0.00 0.00 0.00 63 1027.0
20260506030420 64 141 4.0 6.0 0.00 0.00 0.00 62 1026.9
20260506025917 64 141 4.0 6.0 0.00 0.00 0.00 62 1027.0
20260506025414 64 78 1.0 2.0 0.00 0.00 0.00 62 1027.1
20260506024910 64 80 1.0 1.0 0.00 0.00 0.00 63 1026.9
20260506024408 64 296 2.0 2.0 0.00 0.00 0.00 63 1026.8
20260506023904 64 298 4.0 6.0 0.00 0.00 0.00 62 1026.9
20260506023401 64 180 4.0 7.0 0.00 0.00 0.00 63 1026.7
20260506022857 64 325 3.0 6.0 0.00 0.00 0.00 63 1026.9
20260506022355 0 0.0 0.0 0.00 0.00 0.00 1026.9
20260506021853 64 59 1.0 1.0 0.00 0.00 0.00 63 1027.0
20260506021349 64 59 1.0 1.0 0.00 0.00 0.00 63 1026.8
20260506020846 64 86 1.0 1.0 0.00 0.00 0.00 63 1026.9
20260506020344 64 341 1.0 1.0 0.00 0.00 0.00 63 1027.0
20260506015841 64 113 1.0 2.0 0.00 0.00 0.00 62 1027.0
20260506015339 64 284 6.0 7.0 0.00 0.00 0.00 62 1027.0
20260506014835 64 95 1.0 2.0 0.00 0.00 0.00 62 1026.9
20260506014332 64 241 0.0 1.0 0.00 0.00 0.00 61 1026.8
20260506013829 64 102 6.0 7.0 0.00 0.00 0.00 61 1026.8
20260506013326 64 98 1.0 1.0 0.00 0.00 0.00 61 1026.9
20260506012823 64 75 4.0 6.0 0.00 0.00 0.00 61 1026.8
20260506012320 64 96 3.0 4.0 0.00 0.00 0.00 61 1026.7
20260506011817 64 324 5.0 7.0 0.00 0.00 0.00 60 1026.8
20260506011314 64 239 4.0 7.0 0.00 0.00 0.00 60 1026.5
20260506010811 64 240 4.0 6.0 0.00 0.00 0.00 60 1026.3
20260506010309 65 165 1.0 2.0 0.00 0.00 0.00 60 1026.2
20260506005806 65 26 3.0 6.0 0.00 0.00 0.00 59 1026.4
20260506005305 65 13 2.0 3.0 0.00 0.00 0.00 59 1026.2
20260506004758 65 235 4.0 4.0 0.00 0.00 0.00 58 1026.3
20260506004256 66 148 3.0 3.0 0.00 0.00 0.00 58 1026.4
20260506003752 66 344 3.0 4.0 0.00 0.00 0.00 57 1026.3
20260506003249 66 56 2.0 3.0 0.00 0.00 0.00 57 1026.2
20260506002745 66 32 3.0 4.0 0.00 0.00 0.00 58 1025.9
20260506002241 66 223 2.0 3.0 0.00 0.00 0.00 57 1025.9
20260506001737 66 78 3.0 4.0 0.00 0.00 0.00 58 1025.8
20260506001235 66 25 2.0 3.0 0.00 0.00 0.00 57 1025.7
20260506000731 67 129 2.0 3.0 0.00 0.00 0.00 57 1025.7
20260506000229 67 258 2.0 3.0 0.00 0.00 0.00 57 1025.6
20260505235726 67 270 6.0 8.0 0.00 0.00 0.00 57 1025.6
20260505235224 67 106 4.0 7.0 0.00 0.00 0.00 57 1025.5
20260505234720 68 35 2.0 3.0 0.00 0.00 0.00 56 1025.3
20260505234218 68 272 4.0 4.0 0.00 0.00 0.00 56 1025.5
20260505233714 68 265 3.0 3.0 0.00 0.00 0.00 55 1025.3
20260505233212 68 97 1.0 2.0 0.00 0.00 0.00 55 1025.1
20260505232709 68 320 1.0 1.0 0.00 0.00 0.00 55 1024.9
20260505232207 69 348 3.0 7.0 0.00 0.00 0.00 54 1024.9
20260505231703 69 288 2.0 3.0 0.00 0.00 0.00 53 1024.8
20260505231202 70 290 2.0 6.0 0.00 0.00 0.00 53 1024.7
20260505230700 70 37 1.0 2.0 0.00 0.00 0.00 52 1025.0
20260505230156 70 306 4.0 4.0 0.00 0.00 0.00 52 1024.7
20260505225652 70 196 0.0 1.0 0.00 0.00 0.00 51 1024.8
20260505225149 71 280 4.0 4.0 0.00 0.00 0.00 51 1024.4
20260505224645 71 127 0.0 1.0 0.00 0.00 0.00 51 1024.7
20260505224143 71 280 3.0 4.0 0.00 0.00 0.00 51 1024.4
20260505223640 71 263 7.0 9.0 0.00 0.00 0.00 50 1024.4
20260505223136 72 16 1.0 1.0 0.00 0.00 0.00 49 1024.1
20260505222632 73 281 2.0 4.0 0.00 0.00 0.00 50 1024.3
20260505222129 73 98 2.0 3.0 0.00 0.00 0.00 48 1024.1